| time (UTC) | temp F | wind direction | speed MPH | gust MPH | rain 1hr in | rain 24hr in | rain mn in | humidity % | barometer mb |
| 20260905234532 | 77 | 333 | 1.0 | 9.0 | 0.00 | 1.71 | 1.71 | 85 | 1013.9 |
| 20260905234013 | 77 | 19 | 3.0 | 9.0 | 0.00 | 1.71 | 1.71 | 85 | 1013.9 |
| 20260905233512 | 77 | 17 | 3.0 | 7.0 | 0.00 | 1.71 | 1.71 | 85 | 1013.9 |
| 20260905233028 | 78 | 336 | 0.0 | 3.0 | 0.00 | 1.71 | 1.71 | 84 | 1013.8 |
| 20260905232517 | 78 | 5 | 0.0 | 2.0 | 0.00 | 1.71 | 1.71 | 84 | 1013.9 |
| 20260905232016 | 78 | 324 | 0.0 | 2.0 | 0.00 | 1.71 | 1.71 | 84 | 1013.9 |
| 20260905231511 | 78 | 297 | 0.0 | 2.0 | 0.00 | 1.71 | 1.71 | 83 | 1013.7 |
| 20260905231008 | 78 | 297 | 0.0 | 2.0 | 0.00 | 1.71 | 1.71 | 82 | 1013.4 |
| 20260905230510 | 78 | 297 | 0.0 | 2.0 | 0.00 | 1.71 | 1.71 | 81 | 1013.3 |
| 20260905230023 | 78 | 312 | 0.0 | 2.0 | 0.00 | 1.71 | 1.71 | 82 | 1013.2 |
| 20260905225510 | 78 | 312 | 0.0 | 1.0 | 0.00 | 1.71 | 1.71 | 81 | 1013.2 |
| 20260905225012 | 78 | 317 | 0.0 | 3.0 | 0.00 | 1.71 | 1.71 | 81 | 1013.1 |
| 20260905224505 | 79 | 337 | 1.0 | 3.0 | 0.00 | 1.71 | 1.71 | 81 | 1013.1 |
| 20260905224008 | 79 | 311 | 2.0 | 3.0 | 0.00 | 1.71 | 1.71 | 80 | 1013.1 |
| 20260905223508 | 79 | 15 | 0.0 | 2.0 | 0.00 | 1.71 | 1.71 | 81 | 1013.0 |
| 20260905223005 | 79 | 336 | 0.0 | 2.0 | 0.00 | 1.71 | 1.71 | 81 | 1012.8 |
| 20260905222505 | 79 | 24 | 0.0 | 2.0 | 0.00 | 1.71 | 1.71 | 82 | 1012.8 |
| 20260905222006 | 79 | 330 | 0.0 | 3.0 | 0.00 | 1.71 | 1.71 | 82 | 1012.8 |
| 20260905221512 | 79 | 330 | 0.0 | 3.0 | 0.00 | 1.71 | 1.71 | 81 | 1012.9 |
| 20260905221007 | 79 | 33 | 0.0 | 4.0 | 0.00 | 1.71 | 1.71 | 82 | 1012.9 |
| 20260905220508 | 79 | 330 | 1.0 | 4.0 | 0.00 | 1.71 | 1.71 | 82 | 1012.8 |
| 20260905220019 | 80 | 30 | 1.0 | 2.0 | 0.00 | 1.71 | 1.71 | 83 | 1012.9 |
| 20260905215512 | 79 | 346 | 0.0 | 4.0 | 0.00 | 1.71 | 1.71 | 81 | 1013.0 |
| 20260905215010 | 79 | 282 | 1.0 | 4.0 | 0.00 | 1.71 | 1.71 | 81 | 1013.0 |
| 20260905214504 | 80 | 297 | 1.0 | 4.0 | 0.00 | 1.71 | 1.71 | 79 | 1012.9 |
| 20260905214001 | 80 | 277 | 1.0 | 6.0 | 0.00 | 1.71 | 1.71 | 80 | 1013.0 |
| 20260905213501 | 80 | 287 | 0.0 | 6.0 | 0.00 | 1.71 | 1.71 | 80 | 1013.0 |
| 20260905213004 | 80 | 24 | 0.0 | 2.0 | 0.00 | 1.71 | 1.71 | 81 | 1013.0 |
| 20260905212506 | 80 | 273 | 0.0 | 3.0 | 0.00 | 1.71 | 1.71 | 81 | 1013.0 |
| 20260905212004 | 80 | 303 | 1.0 | 3.0 | 0.00 | 1.71 | 1.71 | 79 | 1013.1 |
| 20260905211507 | 80 | 347 | 0.0 | 2.0 | 0.00 | 1.71 | 1.71 | 79 | 1013.1 |
| 20260905211008 | 80 | 347 | 0.0 | 3.0 | 0.00 | 1.71 | 1.71 | 78 | 1013.0 |
| 20260905210508 | 80 | 291 | 1.0 | 3.0 | 0.00 | 1.71 | 1.71 | 80 | 1013.1 |
| 20260905210015 | 81 | 321 | 2.0 | 3.0 | 0.00 | 1.71 | 1.71 | 79 | 1013.1 |
| 20260905205511 | 81 | 349 | 0.0 | 3.0 | 0.00 | 1.71 | 1.71 | 79 | 1013.1 |
| 20260905205012 | 81 | 340 | 0.0 | 3.0 | 0.00 | 1.71 | 1.71 | 78 | 1013.1 |
| 20260905204526 | 81 | 294 | 1.0 | 3.0 | 0.00 | 1.71 | 1.71 | 78 | 1013.2 |
| 20260905204012 | 81 | 40 | 0.0 | 3.0 | 0.00 | 1.71 | 1.71 | 78 | 1013.2 |
| 20260905203501 | 81 | 281 | 1.0 | 2.0 | 0.00 | 1.71 | 1.71 | 78 | 1013.2 |
| 20260905203007 | 81 | 336 | 1.0 | 4.0 | 0.00 | 1.71 | 1.71 | 79 | 1013.3 |
| 20260905202508 | 81 | 273 | 1.0 | 6.0 | 0.00 | 1.71 | 1.71 | 77 | 1013.3 |
| 20260905202004 | 81 | 360 | 2.0 | 6.0 | 0.00 | 1.71 | 1.71 | 78 | 1013.2 |
| 20260905201512 | 81 | 207 | 1.0 | 5.0 | 0.00 | 1.71 | 1.71 | 77 | 1013.4 |
| 20260905201006 | 81 | 20 | 2.0 | 5.0 | 0.00 | 1.71 | 1.71 | 76 | 1013.5 |
| 20260905200506 | 81 | 321 | 1.0 | 4.0 | 0.00 | 1.71 | 1.71 | 76 | 1013.4 |
| 20260905200014 | 82 | 277 | 1.0 | 4.0 | 0.00 | 1.71 | 1.71 | 77 | 1013.5 |
| 20260905195507 | 82 | 18 | 1.0 | 4.0 | 0.00 | 1.71 | 1.71 | 76 | 1013.5 |
| 20260905195010 | 82 | 360 | 1.0 | 3.0 | 0.00 | 1.71 | 1.71 | 77 | 1013.7 |
| 20260905194523 | 81 | 9 | 1.0 | 3.0 | 0.00 | 1.71 | 1.71 | 78 | 1013.6 |
| 20260905194010 | 81 | 306 | 1.0 | 2.0 | 0.00 | 1.71 | 1.71 | 77 | 1013.8 |
| 20260905193512 | 81 | 15 | 1.0 | 5.0 | 0.00 | 1.71 | 1.71 | 78 | 1013.8 |
| 20260905193029 | 81 | 305 | 1.0 | 6.0 | 0.00 | 1.71 | 1.71 | 78 | 1013.8 |
| 20260905192503 | 81 | 271 | 2.0 | 6.0 | 0.00 | 1.71 | 1.71 | 75 | 1013.9 |
| 20260905192006 | 82 | 302 | 0.0 | 2.0 | 0.00 | 1.71 | 1.71 | 78 | 1013.8 |
| 20260905191506 | 81 | 334 | 1.0 | 5.0 | 0.00 | 1.71 | 1.71 | 77 | 1013.9 |
| 20260905191004 | 81 | 333 | 1.0 | 5.0 | 0.00 | 1.71 | 1.71 | 76 | 1013.9 |
| 20260905190508 | 82 | 240 | 1.0 | 7.0 | 0.00 | 1.71 | 1.71 | 77 | 1014.1 |
| 20260905190025 | 81 | 334 | 2.0 | 7.0 | 0.00 | 1.71 | 1.71 | 78 | 1014.1 |
| 20260905185507 | 81 | 255 | 2.0 | 6.0 | 0.00 | 1.71 | 1.71 | 77 | 1014.1 |
| 20260905185012 | 81 | 321 | 2.0 | 6.0 | 0.00 | 1.71 | 1.71 | 79 | 1014.2 |
| 20260905184518 | 81 | 9 | 2.0 | 6.0 | 0.00 | 1.71 | 1.71 | 79 | 1014.3 |
| 20260905184012 | 81 | 313 | 1.0 | 4.0 | 0.00 | 1.71 | 1.71 | 79 | 1014.4 |
| 20260905183511 | 80 | 253 | 1.0 | 4.0 | 0.00 | 1.71 | 1.71 | 80 | 1014.4 |
| 20260905183026 | 80 | 234 | 1.0 | 6.0 | 0.00 | 1.71 | 1.71 | 80 | 1014.4 |
| 20260905182513 | 79 | 19 | 1.0 | 6.0 | 0.00 | 1.71 | 1.71 | 80 | 1014.4 |
| 20260905182012 | 79 | 244 | 1.0 | 4.0 | 0.00 | 1.71 | 1.71 | 81 | 1014.5 |
| 20260905181534 | 80 | 311 | 1.0 | 4.0 | 0.00 | 1.71 | 1.71 | 79 | 1014.4 |
| 20260905181006 | 80 | 281 | 1.0 | 9.0 | 0.00 | 1.71 | 1.71 | 79 | 1014.4 |
| 20260905180505 | 80 | 38 | 2.0 | 9.0 | 0.00 | 1.71 | 1.71 | 79 | 1014.3 |
| 20260905180011 | 80 | 15 | 0.0 | 5.0 | 0.00 | 1.71 | 1.71 | 79 | 1014.3 |
| 20260905175507 | 80 | 30 | 2.0 | 5.0 | 0.00 | 1.71 | 1.71 | 78 | 1014.3 |
| 20260905175006 | 80 | 72 | 2.0 | 5.0 | 0.00 | 1.71 | 1.71 | 79 | 1014.2 |
| 20260905174516 | 80 | 352 | 2.0 | 5.0 | 0.00 | 1.71 | 1.71 | 79 | 1014.3 |
| 20260905174010 | 80 | 360 | 1.0 | 7.0 | 0.00 | 1.71 | 1.71 | 79 | 1014.3 |
| 20260905173510 | 80 | 294 | 2.0 | 7.0 | 0.00 | 1.71 | 1.71 | 79 | 1014.3 |
| 20260905173023 | 80 | 27 | 1.0 | 7.0 | 0.00 | 1.71 | 1.71 | 80 | 1014.3 |
| 20260905172511 | 79 | 342 | 3.0 | 8.0 | 0.00 | 1.71 | 1.71 | 77 | 1014.4 |
| 20260905172013 | 80 | 309 | 2.0 | 8.0 | 0.00 | 1.71 | 1.71 | 79 | 1014.4 |
| 20260905171542 | 80 | 275 | 2.0 | 7.0 | 0.00 | 1.71 | 1.71 | 78 | 1014.5 |
| 20260905171012 | 80 | 244 | 2.0 | 8.0 | 0.00 | 1.71 | 1.71 | 79 | 1014.5 |
| 20260905170516 | 80 | 16 | 2.0 | 8.0 | 0.00 | 1.71 | 1.71 | 79 | 1014.6 |
| 20260905170011 | 80 | 284 | 3.0 | 7.0 | 0.00 | 1.72 | 1.71 | 77 | 1014.7 |
| 20260905165505 | 80 | 246 | 3.0 | 6.0 | 0.00 | 1.72 | 1.71 | 78 | 1014.6 |
| 20260905165006 | 80 | 291 | 2.0 | 7.0 | 0.00 | 1.73 | 1.71 | 79 | 1014.6 |
| 20260905164514 | 80 | 266 | 2.0 | 8.0 | 0.00 | 1.73 | 1.71 | 79 | 1014.5 |
| 20260905164008 | 80 | 19 | 3.0 | 8.0 | 0.00 | 1.73 | 1.71 | 77 | 1014.4 |
| 20260905163507 | 80 | 335 | 2.0 | 8.0 | 0.00 | 1.74 | 1.71 | 79 | 1014.3 |
| 20260905163020 | 79 | 295 | 2.0 | 7.0 | 0.00 | 1.75 | 1.71 | 79 | 1014.3 |
| 20260905162510 | 79 | 251 | 1.0 | 5.0 | 0.00 | 1.96 | 1.71 | 79 | 1014.5 |
| 20260905162013 | 79 | 345 | 2.0 | 6.0 | 0.00 | 2.09 | 1.71 | 77 | 1014.5 |
| 20260905161526 | 79 | 306 | 1.0 | 6.0 | 0.00 | 2.09 | 1.71 | 82 | 1014.5 |
| 20260905161014 | 79 | 329 | 1.0 | 4.0 | 0.00 | 2.09 | 1.71 | 80 | 1014.4 |
| 20260905160517 | 78 | 297 | 0.0 | 7.0 | 0.00 | 2.09 | 1.71 | 81 | 1014.5 |
| 20260905160048 | 78 | 272 | 1.0 | 7.0 | 0.00 | 2.09 | 1.71 | 81 | 1014.4 |
| 20260905155520 | 78 | 284 | 1.0 | 6.0 | 0.00 | 2.09 | 1.71 | 78 | 1014.4 |
| 20260905155005 | 78 | 350 | 1.0 | 3.0 | 0.00 | 2.09 | 1.71 | 79 | 1014.4 |
| 20260905154517 | 78 | 269 | 1.0 | 3.0 | 0.00 | 2.09 | 1.71 | 79 | 1014.3 |
| 20260905154006 | 78 | 279 | 1.0 | 6.0 | 0.00 | 2.09 | 1.71 | 80 | 1014.3 |
| 20260905153506 | 79 | 276 | 1.0 | 6.0 | 0.00 | 2.09 | 1.71 | 77 | 1014.2 |
| 20260905153025 | 79 | 260 | 0.0 | 6.0 | 0.00 | 2.09 | 1.71 | 79 | 1014.1 |
| 20260905152511 | 79 | 271 | 2.0 | 5.0 | 0.00 | 2.09 | 1.71 | 80 | 1014.1 |
| 20260905152018 | 78 | 290 | 1.0 | 6.0 | 0.00 | 2.09 | 1.71 | 81 | 1014.2 |
| 20260905151528 | 78 | 235 | 1.0 | 6.0 | 0.00 | 2.09 | 1.71 | 82 | 1014.2 |
| 20260905151016 | 77 | 59 | 1.0 | 3.0 | 0.00 | 2.09 | 1.71 | 84 | 1014.1 |
| 20260905150513 | 76 | 245 | 1.0 | 3.0 | 0.00 | 2.09 | 1.71 | 1014.1 | |
| 20260905150028 | 75 | 352 | 0.0 | 2.0 | 0.00 | 2.09 | 1.71 | 1014.1 | |
| 20260905145519 | 75 | 284 | 1.0 | 2.0 | 0.00 | 2.09 | 1.71 | 88 | 1014.1 |
| 20260905145015 | 74 | 122 | 0.0 | 2.0 | 0.00 | 2.09 | 1.71 | 88 | 1014.0 |
| 20260905144531 | 73 | 173 | 0.0 | 2.0 | 0.00 | 2.09 | 1.71 | 88 | 1014.0 |
| 20260905144003 | 73 | 127 | 0.0 | 2.0 | 0.00 | 2.09 | 1.71 | 89 | 1013.9 |
| 20260905143506 | 72 | 251 | 1.0 | 2.0 | 0.00 | 2.09 | 1.71 | 88 | 1013.9 |
| 20260905143017 | 72 | 284 | 0.0 | 2.0 | 0.00 | 2.09 | 1.71 | 89 | 1013.8 |
| 20260905142508 | 71 | 284 | 0.0 | 2.0 | 0.00 | 2.09 | 1.71 | 90 | 1013.9 |
| 20260905142009 | 71 | 284 | 0.0 | 2.0 | 0.00 | 2.11 | 1.71 | 91 | 1013.8 |
| 20260905141522 | 70 | 203 | 0.0 | 2.0 | 0.00 | 2.11 | 1.71 | 93 | 1013.7 |
| 20260905141011 | 70 | 218 | 0.0 | 2.0 | 0.00 | 2.11 | 1.71 | 93 | 1013.6 |
| 20260905140514 | 69 | 200 | 0.0 | 2.0 | 0.00 | 2.13 | 1.71 | 94 | 1013.5 |
| 20260905140028 | 69 | 200 | 0.0 | 2.0 | 0.00 | 2.14 | 1.71 | 94 | 1013.6 |
| 20260905135516 | 69 | 207 | 0.0 | 2.0 | 0.00 | 2.14 | 1.71 | 95 | 1013.6 |
| 20260905135014 | 68 | 139 | 1.0 | 4.0 | 0.00 | 2.14 | 1.71 | 95 | 1013.7 |
| 20260905134508 | 68 | 144 | 1.0 | 4.0 | 0.00 | 2.14 | 1.71 | 96 | 1013.8 |
| 20260905134003 | 68 | 152 | 1.0 | 3.0 | 0.00 | 2.14 | 1.71 | 96 | 1014.1 |
| 20260905133506 | 68 | 138 | 1.0 | 3.0 | 0.00 | 2.14 | 1.71 | 96 | 1014.1 |
| 20260905133020 | 67 | 232 | 0.0 | 3.0 | 0.00 | 2.14 | 1.71 | 96 | 1014.2 |
| 20260905132506 | 67 | 215 | 1.0 | 3.0 | 0.00 | 2.14 | 1.71 | 96 | 1014.3 |
| 20260905132006 | 67 | 190 | 1.0 | 3.0 | 0.00 | 2.14 | 1.71 | 96 | 1014.3 |
| 20260905131519 | 67 | 136 | 1.0 | 4.0 | 0.00 | 2.14 | 1.71 | 96 | 1014.2 |
| 20260905131001 | 67 | 164 | 1.0 | 4.0 | 0.00 | 2.14 | 1.71 | 96 | 1014.1 |
| 20260905130503 | 67 | 165 | 1.0 | 2.0 | 0.00 | 2.14 | 1.71 | 96 | 1014.3 |
| 20260905130004 | 67 | 191 | 0.0 | 3.0 | 0.00 | 2.14 | 1.71 | 96 | 1014.3 |
| 20260905125504 | 67 | 204 | 0.0 | 3.0 | 0.00 | 2.14 | 1.71 | 97 | 1014.1 |
| 20260905125005 | 67 | 206 | 1.0 | 3.0 | 0.01 | 2.14 | 1.71 | 96 | 1014.3 |
| 20260905124508 | 67 | 190 | 1.0 | 3.0 | 0.01 | 2.14 | 1.71 | 97 | 1014.3 |
| 20260905124003 | 67 | 190 | 0.0 | 3.0 | 0.01 | 2.14 | 1.71 | 97 | 1014.3 |
| 20260905123504 | 67 | 153 | 0.0 | 2.0 | 0.01 | 2.14 | 1.71 | 96 | 1014.2 |
| 20260905123012 | 67 | 153 | 0.0 | 3.0 | 0.02 | 2.14 | 1.71 | 96 | 1014.3 |
| 20260905122504 | 67 | 153 | 0.0 | 3.0 | 0.03 | 2.14 | 1.71 | 96 | 1014.6 |
| 20260905122008 | 67 | 146 | 0.0 | 2.0 | 0.04 | 2.14 | 1.71 | 96 | 1014.6 |
| 20260905121519 | 67 | 152 | 0.0 | 2.0 | 0.06 | 2.14 | 1.71 | 96 | 1014.7 |
| 20260905121008 | 67 | 135 | 1.0 | 2.0 | 0.07 | 2.14 | 1.71 | 96 | 1014.6 |
| 20260905120512 | 67 | 151 | 0.0 | 2.0 | 0.08 | 2.14 | 1.71 | 96 | 1014.6 |
| 20260905120012 | 67 | 166 | 0.0 | 3.0 | 0.09 | 2.14 | 1.71 | 96 | 1014.7 |
| 20260905115503 | 67 | 166 | 0.0 | 3.0 | 0.11 | 2.14 | 1.71 | 96 | 1014.8 |
| 20260905115001 | 67 | 223 | 1.0 | 3.0 | 0.11 | 2.13 | 1.70 | 96 | 1015.0 |
| 20260905114505 | 67 | 266 | 1.0 | 3.0 | 0.13 | 2.13 | 1.70 | 96 | 1014.8 |
| 20260905114001 | 67 | 198 | 0.0 | 5.0 | 0.14 | 2.13 | 1.70 | 96 | 1014.5 |
| 20260905113501 | 67 | 250 | 1.0 | 5.0 | 0.16 | 2.13 | 1.70 | 96 | 1014.4 |
| 20260905113011 | 67 | 210 | 2.0 | 5.0 | 0.17 | 2.11 | 1.69 | 96 | 1014.2 |
| 20260905112506 | 67 | 192 | 1.0 | 5.0 | 0.18 | 2.10 | 1.68 | 96 | 1013.9 |
| 20260905112006 | 67 | 149 | 2.0 | 5.0 | 0.18 | 2.09 | 1.67 | 96 | 1014.0 |
| 20260905111516 | 67 | 169 | 2.0 | 4.0 | 0.17 | 2.08 | 1.65 | 96 | 1014.6 |
| 20260905111010 | 67 | 157 | 1.0 | 2.0 | 0.17 | 2.07 | 1.64 | 96 | 1014.8 |
| 20260905110509 | 68 | 192 | 1.0 | 2.0 | 0.17 | 2.06 | 1.63 | 96 | 1014.7 |
| 20260905110025 | 68 | 129 | 1.0 | 2.0 | 0.16 | 2.05 | 1.62 | 96 | 1014.9 |
| 20260905105510 | 67 | 261 | 0.0 | 4.0 | 0.15 | 2.03 | 1.60 | 96 | 1015.3 |
| 20260905105014 | 68 | 261 | 1.0 | 4.0 | 0.16 | 2.02 | 1.59 | 96 | 1015.6 |
| 20260905104508 | 68 | 252 | 0.0 | 4.0 | 0.15 | 2.00 | 1.57 | 96 | 1015.6 |
| 20260905104001 | 67 | 229 | 0.0 | 4.0 | 0.15 | 1.99 | 1.56 | 96 | 1015.9 |
| 20260905103504 | 68 | 247 | 2.0 | 7.0 | 0.14 | 1.97 | 1.54 | 96 | 1016.0 |
| 20260905103017 | 68 | 333 | 2.0 | 8.0 | 0.14 | 1.95 | 1.52 | 96 | 1016.0 |
| 20260905102504 | 68 | 331 | 2.0 | 10.0 | 0.13 | 1.93 | 1.50 | 96 | 1016.0 |
| 20260905102006 | 68 | 335 | 3.0 | 10.0 | 0.12 | 1.92 | 1.49 | 96 | 1015.9 |
| 20260905101513 | 68 | 28 | 0.0 | 7.0 | 0.12 | 1.91 | 1.48 | 96 | 1015.9 |
| 20260905101006 | 68 | 9 | 2.0 | 7.0 | 0.12 | 1.90 | 1.47 | 96 | 1015.8 |
| 20260905100510 | 68 | 298 | 2.0 | 7.0 | 0.15 | 1.89 | 1.46 | 96 | 1016.0 |
| 20260905100018 | 68 | 281 | 1.0 | 6.0 | 0.22 | 1.89 | 1.46 | 96 | 1016.1 |
| 20260905095512 | 68 | 256 | 2.0 | 6.0 | 0.40 | 1.88 | 1.45 | 96 | 1016.1 |
| 20260905095017 | 67 | 261 | 2.0 | 7.0 | 0.49 | 1.86 | 1.43 | 96 | 1016.3 |
| 20260905094528 | 67 | 315 | 1.0 | 7.0 | 0.48 | 1.85 | 1.42 | 96 | 1016.1 |
| 20260905094017 | 67 | 317 | 0.0 | 5.0 | 0.48 | 1.84 | 1.41 | 96 | 1015.7 |
| 20260905093501 | 67 | 296 | 1.0 | 5.0 | 0.49 | 1.83 | 1.40 | 96 | 1015.5 |
| 20260905093005 | 67 | 317 | 1.0 | 6.0 | 0.47 | 1.81 | 1.38 | 96 | 1015.5 |
| 20260905092504 | 67 | 336 | 2.0 | 6.0 | 0.46 | 1.80 | 1.37 | 95 | 1015.6 |
| 20260905092004 | 67 | 342 | 2.0 | 6.0 | 0.46 | 1.80 | 1.37 | 96 | 1015.5 |
| 20260905091514 | 68 | 297 | 2.0 | 6.0 | 0.46 | 1.79 | 1.36 | 96 | 1016.0 |
| 20260905091006 | 68 | 352 | 2.0 | 6.0 | 0.46 | 1.78 | 1.35 | 96 | 1015.7 |
| 20260905090506 | 68 | 352 | 3.0 | 12.0 | 0.43 | 1.74 | 1.31 | 96 | 1015.4 |
| 20260905090017 | 68 | 246 | 2.0 | 12.0 | 0.40 | 1.67 | 1.24 | 95 | 1015.6 |
| 20260905085509 | 68 | 273 | 6.0 | 12.0 | 0.34 | 1.48 | 1.04 | 95 | 1015.8 |
| 20260905085010 | 68 | 200 | 7.0 | 11.0 | 0.39 | 1.37 | 0.94 | 95 | 1015.7 |
| 20260905084532 | 68 | 34 | 2.0 | 6.0 | 0.43 | 1.37 | 0.94 | 96 | 1013.3 |
| 20260905084012 | 68 | 169 | 0.0 | 4.0 | 0.45 | 1.36 | 0.93 | 95 | 1013.0 |
| 20260905083517 | 68 | 340 | 2.0 | 4.0 | 0.44 | 1.34 | 0.91 | 96 | 1012.8 |
| 20260905083028 | 68 | 222 | 2.0 | 4.0 | 0.45 | 1.34 | 0.91 | 96 | 1013.4 |
| 20260905082504 | 68 | 256 | 1.0 | 2.0 | 0.46 | 1.34 | 0.91 | 95 | 1013.6 |
| 20260905082005 | 68 | 351 | 0.0 | 2.0 | 0.47 | 1.34 | 0.91 | 95 | 1013.7 |
| 20260905081508 | 68 | 333 | 0.0 | 2.0 | 0.48 | 1.33 | 0.90 | 94 | 1014.1 |
| 20260905081006 | 68 | 58 | 0.0 | 2.0 | 0.55 | 1.32 | 0.89 | 94 | 1014.3 |
| 20260905080508 | 69 | 58 | 0.0 | 8.0 | 0.63 | 1.31 | 0.88 | 93 | 1014.0 |
| 20260905080027 | 69 | 178 | 2.0 | 12.0 | 0.72 | 1.27 | 0.84 | 92 | 1013.9 |
| 20260905075506 | 69 | 301 | 2.0 | 12.0 | 0.67 | 1.14 | 0.71 | 94 | 1014.2 |
| 20260905075012 | 69 | 287 | 4.0 | 7.0 | 0.55 | 0.98 | 0.55 | 95 | 1014.6 |
| 20260905074523 | 69 | 282 | 3.0 | 9.0 | 0.51 | 0.94 | 0.51 | 95 | 1014.4 |
| 20260905074010 | 69 | 348 | 3.0 | 9.0 | 0.48 | 0.91 | 0.48 | 95 | 1014.4 |
| 20260905073512 | 69 | 345 | 1.0 | 10.0 | 0.47 | 0.90 | 0.47 | 96 | 1014.8 |
| 20260905073036 | 69 | 22 | 3.0 | 11.0 | 0.46 | 0.89 | 0.46 | 96 | 1014.6 |
| 20260905072514 | 70 | 177 | 3.0 | 12.0 | 0.45 | 0.88 | 0.45 | 96 | 1014.7 |
| 20260905072016 | 70 | 170 | 4.0 | 12.0 | 0.44 | 0.87 | 0.44 | 96 | 1014.6 |
| 20260905071528 | 71 | 281 | 2.0 | 11.0 | 0.42 | 0.85 | 0.42 | 97 | 1014.8 |
| 20260905071009 | 72 | 165 | 2.0 | 6.0 | 0.34 | 0.77 | 0.34 | 98 | 1014.4 |
| 20260905070507 | 71 | 325 | 1.0 | 5.0 | 0.25 | 0.68 | 0.25 | 98 | 1014.3 |
| 20260905070024 | 71 | 270 | 2.0 | 5.0 | 0.12 | 0.55 | 0.12 | 97 | 1014.2 |
| 20260905065506 | 71 | 275 | 1.0 | 2.0 | 0.04 | 0.47 | 0.04 | 97 | 1014.4 |
| 20260905065012 | 71 | 273 | 1.0 | 2.0 | 0.00 | 0.43 | 0.00 | 97 | 1014.2 |
| 20260905064536 | 71 | 331 | 0.0 | 2.0 | 0.00 | 0.43 | 0.00 | 98 | 1013.9 |
| 20260905064014 | 71 | 331 | 0.0 | 2.0 | 0.00 | 0.43 | 0.00 | 97 | 1013.8 |
| 20260905063512 | 71 | 331 | 0.0 | 2.0 | 0.00 | 0.43 | 0.00 | 97 | 1014.0 |
| 20260905063026 | 71 | 331 | 0.0 | 2.0 | 0.00 | 0.43 | 0.00 | 97 | 1013.4 |
| 20260905062512 | 71 | 331 | 0.0 | 2.0 | 0.00 | 0.43 | 0.00 | 97 | 1014.0 |
| 20260905062013 | 70 | 331 | 1.0 | 2.0 | 0.00 | 0.43 | 0.00 | 97 | 1014.2 |
| 20260905061530 | 70 | 331 | 0.0 | 2.0 | 0.00 | 0.43 | 0.00 | 97 | 1013.8 |
| 20260905061016 | 70 | 331 | 0.0 | 2.0 | 0.00 | 0.43 | 0.00 | 97 | 1013.6 |
| 20260905060517 | 70 | 331 | 0.0 | 2.0 | 0.00 | 0.43 | 0.00 | 97 | 1013.7 |
| 20260905060013 | 70 | 331 | 0.0 | 0.0 | 0.00 | 0.43 | 0.00 | 97 | 1014.0 |
| 20260905055505 | 70 | 331 | 0.0 | 0.0 | 0.00 | 0.43 | 0.00 | 97 | 1013.9 |
| 20260905055012 | 70 | 331 | 0.0 | 2.0 | 0.00 | 0.43 | 0.00 | 97 | 1014.2 |
| 20260905054531 | 70 | 331 | 0.0 | 2.0 | 0.00 | 0.43 | 0.00 | 97 | 1014.3 |
| 20260905054013 | 70 | 331 | 0.0 | 2.0 | 0.00 | 0.43 | 0.00 | 97 | 1014.4 |
| 20260905053508 | 71 | 331 | 0.0 | 2.0 | 0.00 | 0.43 | 0.00 | 97 | 1014.3 |
| 20260905053027 | 71 | 331 | 0.0 | 2.0 | 0.00 | 0.43 | 0.00 | 97 | 1014.2 |
| 20260905052513 | 71 | 331 | 0.0 | 2.0 | 0.00 | 0.43 | 0.00 | 97 | 1014.2 |
| 20260905052014 | 70 | 331 | 0.0 | 0.0 | 0.00 | 0.43 | 0.00 | 97 | 1014.2 |
| 20260905051539 | 70 | 331 | 0.0 | 0.0 | 0.00 | 0.43 | 0.00 | 97 | 1014.4 |
| 20260905051013 | 70 | 331 | 0.0 | 0.0 | 0.00 | 0.43 | 0.00 | 97 | 1014.7 |
| 20260905050517 | 70 | 331 | 0.0 | 0.0 | 0.00 | 0.43 | 0.00 | 97 | 1014.7 |
| 20260905050033 | 70 | 331 | 0.0 | 2.0 | 0.00 | 0.43 | 0.00 | 97 | 1014.7 |
| 20260905045517 | 70 | 331 | 0.0 | 2.0 | 0.00 | 0.43 | 0.00 | 97 | 1014.7 |
| 20260905045009 | 70 | 331 | 0.0 | 0.0 | 0.00 | 0.43 | 0.00 | 97 | 1014.7 |
| 20260905044514 | 70 | 331 | 0.0 | 0.0 | 0.00 | 0.43 | 0.00 | 97 | 1014.7 |
| 20260905044008 | 70 | 331 | 0.0 | 0.0 | 0.00 | 0.43 | 0.00 | 97 | 1014.6 |
| 20260905043510 | 70 | 331 | 0.0 | 0.0 | 0.00 | 0.43 | 0.00 | 97 | 1014.7 |
| 20260905043024 | 70 | 331 | 0.0 | 0.0 | 0.00 | 0.43 | 0.00 | 97 | 1014.7 |
| 20260905042510 | 70 | 331 | 0.0 | 0.0 | 0.00 | 0.43 | 0.00 | 97 | 1015.0 |
| 20260905042012 | 70 | 331 | 0.0 | 0.0 | 0.00 | 0.43 | 0.00 | 97 | 1015.2 |
| 20260905041526 | 70 | 331 | 0.0 | 0.0 | 0.00 | 0.43 | 0.00 | 97 | 1015.3 |
| 20260905041015 | 70 | 331 | 0.0 | 0.0 | 0.00 | 0.43 | 0.00 | 96 | 1015.2 |
| 20260905040516 | 70 | 331 | 0.0 | 0.0 | 0.00 | 0.43 | 0.00 | 97 | 1015.0 |
| 20260905040034 | 70 | 331 | 0.0 | 0.0 | 0.00 | 0.43 | 0.00 | 96 | 1015.1 |
| 20260905035517 | 71 | 331 | 0.0 | 0.0 | 0.00 | 0.43 | 0.43 | 96 | 1015.2 |
| 20260905035017 | 71 | 331 | 0.0 | 0.0 | 0.00 | 0.43 | 0.43 | 96 | 1015.2 |
| 20260905034535 | 71 | 331 | 0.0 | 0.0 | 0.00 | 0.43 | 0.43 | 96 | 1015.3 |
| 20260905034017 | 71 | 331 | 0.0 | 0.0 | 0.00 | 0.43 | 0.43 | 96 | 1015.2 |
| 20260905033508 | 71 | 331 | 0.0 | 0.0 | 0.00 | 0.43 | 0.43 | 96 | 1015.3 |
| 20260905033025 | 71 | 331 | 0.0 | 0.0 | 0.00 | 0.43 | 0.43 | 96 | 1015.3 |
| 20260905032513 | 71 | 331 | 0.0 | 0.0 | 0.00 | 0.43 | 0.43 | 96 | 1015.3 |
| 20260905032010 | 71 | 331 | 0.0 | 0.0 | 0.00 | 0.43 | 0.43 | 96 | 1015.2 |
| 20260905031527 | 71 | 331 | 0.0 | 0.0 | 0.00 | 0.43 | 0.43 | 96 | 1015.2 |
| 20260905031013 | 71 | 331 | 0.0 | 1.0 | 0.00 | 0.43 | 0.43 | 96 | 1015.2 |
| 20260905030514 | 71 | 331 | 0.0 | 1.0 | 0.00 | 0.43 | 0.43 | 96 | 1015.3 |
| 20260905030031 | 71 | 331 | 0.0 | 0.0 | 0.00 | 0.43 | 0.43 | 96 | 1015.3 |
| 20260905025516 | 71 | 331 | 0.0 | 0.0 | 0.00 | 0.43 | 0.43 | 96 | 1015.2 |
| 20260905025016 | 71 | 331 | 0.0 | 0.0 | 0.00 | 0.43 | 0.43 | 96 | 1015.3 |
| 20260905024533 | 71 | 331 | 0.0 | 0.0 | 0.00 | 0.43 | 0.43 | 96 | 1015.3 |
| 20260905024019 | 71 | 331 | 0.0 | 0.0 | 0.00 | 0.43 | 0.43 | 96 | 1015.3 |
| 20260905023517 | 71 | 331 | 0.0 | 0.0 | 0.00 | 0.43 | 0.43 | 96 | 1015.3 |
| 20260905023032 | 71 | 331 | 0.0 | 0.0 | 0.00 | 0.43 | 0.43 | 96 | 1015.3 |
| 20260905022513 | 71 | 331 | 0.0 | 0.0 | 0.00 | 0.43 | 0.43 | 96 | 1015.5 |
| 20260905022010 | 72 | 331 | 0.0 | 0.0 | 0.00 | 0.43 | 0.43 | 95 | 1015.3 |
| 20260905021535 | 72 | 331 | 0.0 | 0.0 | 0.00 | 0.43 | 0.43 | 96 | 1015.3 |
| 20260905021012 | 72 | 331 | 0.0 | 0.0 | 0.00 | 0.43 | 0.43 | 96 | 1015.2 |
| 20260905020512 | 72 | 331 | 0.0 | 0.0 | 0.00 | 0.43 | 0.43 | 95 | 1015.2 |
| 20260905020029 | 72 | 331 | 0.0 | 0.0 | 0.00 | 0.43 | 0.43 | 95 | 1015.2 |
| 20260905015514 | 72 | 331 | 0.0 | 0.0 | 0.00 | 0.43 | 0.43 | 95 | 1015.2 |
| 20260905015016 | 72 | 331 | 0.0 | 0.0 | 0.00 | 0.43 | 0.43 | 95 | 1015.1 |
| 20260905014544 | 72 | 331 | 0.0 | 0.0 | 0.00 | 0.43 | 0.43 | 95 | 1015.1 |
| 20260905014017 | 72 | 331 | 0.0 | 0.0 | 0.00 | 0.43 | 0.43 | 95 | 1015.0 |
| 20260905013521 | 72 | 331 | 0.0 | 0.0 | 0.00 | 0.43 | 0.43 | 95 | 1015.1 |
| 20260905013032 | 72 | 331 | 0.0 | 0.0 | 0.00 | 0.43 | 0.43 | 95 | 1015.0 |
| 20260905012520 | 72 | 331 | 0.0 | 0.0 | 0.00 | 0.43 | 0.43 | 95 | 1015.0 |
| 20260905012018 | 72 | 331 | 0.0 | 0.0 | 0.00 | 0.43 | 0.43 | 94 | 1014.9 |
| 20260905011523 | 73 | 331 | 0.0 | 1.0 | 0.00 | 0.43 | 0.43 | 94 | 1014.9 |
| 20260905011011 | 73 | 331 | 0.0 | 1.0 | 0.00 | 0.43 | 0.43 | 94 | 1015.0 |
| 20260905010511 | 73 | 331 | 0.0 | 0.0 | 0.00 | 0.43 | 0.43 | 93 | 1014.9 |
| 20260905010030 | 73 | 331 | 0.0 | 0.0 | 0.00 | 0.43 | 0.43 | 93 | 1014.8 |
| 20260905005514 | 73 | 331 | 0.0 | 2.0 | 0.00 | 0.43 | 0.43 | 93 | 1014.7 |
| 20260905005014 | 73 | 331 | 0.0 | 2.0 | 0.00 | 0.43 | 0.43 | 93 | 1014.9 |
| 20260905004531 | 74 | 331 | 0.0 | 2.0 | 0.00 | 0.43 | 0.43 | 93 | 1014.8 |
| 20260905004016 | 74 | 331 | 0.0 | 0.0 | 0.00 | 0.43 | 0.43 | 92 | 1014.8 |
| 20260905003520 | 74 | 331 | 0.0 | 2.0 | 0.00 | 0.43 | 0.43 | 92 | 1014.8 |
| 20260905003036 | 74 | 331 | 0.0 | 2.0 | 0.00 | 0.43 | 0.43 | 92 | 1014.8 |
| 20260905002515 | 75 | 331 | 0.0 | 2.0 | 0.00 | 0.43 | 0.43 | 91 | 1014.7 |
| 20260905002020 | 75 | 331 | 0.0 | 0.0 | 0.00 | 0.43 | 0.43 | 91 | 1014.8 |
| 20260905001532 | 75 | 331 | 0.0 | 2.0 | 0.00 | 0.43 | 0.43 | 90 | 1014.8 |
| 20260905001018 | 76 | 331 | 0.0 | 2.0 | 0.00 | 0.43 | 0.43 | 90 | 1014.7 |
| 20260905000520 | 76 | 331 | 0.0 | 2.0 | 0.00 | 0.43 | 0.43 | 90 | 1014.6 |
| 20260905000025 | 76 | 331 | 0.0 | 2.0 | 0.00 | 0.43 | 0.43 | 89 | 1014.7 |
| 20260904235514 | 77 | 331 | 0.0 | 2.0 | 0.00 | 0.43 | 0.43 | 88 | 1014.7 |
| 20260904235012 | 77 | 331 | 0.0 | 2.0 | 0.00 | 0.43 | 0.43 | 88 | 1014.6 |